• In France
  • List of Countries
  • For 7 days
  • Water Temperature
  • Satellite Maps
  • Weather Map
  • Weather Widgets
  • user-avatar
    Login

    Hourly Weather Korhogo

    Today, 21 February, Wednesday

    Time Temperature Precipitation Wind Pressure Humidity
    00:00 +29°C° 0.2 mm 3 mps 724 mmHg 66%
    01:00 +29°C° 0 mm 3 mps 723 mmHg 67%
    02:00 +29°C° 0 mm 2 mps 723 mmHg 68%
    03:00 +28°C° 0 mm 2 mps 722 mmHg 69%
    04:00 +28°C° 0 mm 2 mps 722 mmHg 69%
    05:00 +28°C° 0 mm 2 mps 723 mmHg 70%
    06:00 +27°C° 0 mm 3 mps 723 mmHg 70%
    07:00 +28°C° 0 mm 3 mps 723 mmHg 66%
    08:00 +30°C° 0 mm 3 mps 724 mmHg 62%
    09:00 +32°C° 0 mm 4 mps 724 mmHg 57%
    10:00 +34°C° 0 mm 4 mps 724 mmHg 50%
    11:00 +36°C° 0 mm 3 mps 724 mmHg 42%
    12:00 +38°C° 0 mm 3 mps 724 mmHg 35%
    13:00 +39°C° 0 mm 3 mps 723 mmHg 31%
    14:00 +40°C° 0 mm 2 mps 722 mmHg 28%
    15:00 +41°C° 0 mm 2 mps 721 mmHg 24%
    16:00 +40°C° 0 mm 2 mps 721 mmHg 26%
    17:00 +38°C° 0 mm 2 mps 721 mmHg 28%
    18:00 +37°C° 0 mm 2 mps 721 mmHg 30%
    19:00 +36°C° 0 mm 2 mps 721 mmHg 33%
    20:00 +36°C° 0 mm 2 mps 722 mmHg 35%
    21:00 +35°C° 0 mm 2 mps 722 mmHg 37%
    22:00 +34°C° 0 mm 2 mps 722 mmHg 41%
    23:00 +33°C° 0 mm 3 mps 722 mmHg 45%

    Tomorrow, 22 February, Thursday

    Time Temperature Precipitation Wind Pressure Humidity
    00:00 +33°C° 0 mm 3 mps 723 mmHg 48%
    01:00 +31°C° 0 mm 3 mps 722 mmHg 53%
    02:00 +30°C° 0 mm 3 mps 722 mmHg 57%
    03:00 +29°C° 0 mm 4 mps 722 mmHg 62%
    04:00 +29°C° 0 mm 4 mps 722 mmHg 65%
    05:00 +28°C° 0 mm 4 mps 721 mmHg 68%
    06:00 +28°C° 0 mm 4 mps 721 mmHg 70%
    07:00 +28°C° 0 mm 4 mps 722 mmHg 67%
    08:00 +29°C° 0 mm 4 mps 723 mmHg 63%
    09:00 +30°C° 0 mm 4 mps 723 mmHg 60%
    10:00 +33°C° 0 mm 3 mps 723 mmHg 52%
    11:00 +35°C° 0 mm 3 mps 723 mmHg 44%
    12:00 +37°C° 0 mm 3 mps 723 mmHg 36%
    13:00 +38°C° 0 mm 3 mps 723 mmHg 32%
    14:00 +39°C° 0 mm 2 mps 722 mmHg 29%
    15:00 +40°C° 0 mm 2 mps 721 mmHg 25%
    16:00 +39°C° 0 mm 2 mps 721 mmHg 27%
    17:00 +38°C° 0 mm 2 mps 721 mmHg 28%
    18:00 +36°C° 0 mm 1 mps 720 mmHg 29%
    19:00 +35°C° 0 mm 1 mps 721 mmHg 32%
    20:00 +35°C° 0 mm 2 mps 721 mmHg 35%
    21:00 +34°C° 0 mm 2 mps 722 mmHg 37%
    22:00 +34°C° 0 mm 2 mps 722 mmHg 41%
    23:00 +32°C° 0 mm 2 mps 722 mmHg 44%

    Day after tomorrow, 23 February, Friday

    Time Temperature Precipitation Wind Pressure Humidity
    00:00 +31°C° 0 mm 3 mps 722 mmHg 48%
    01:00 +31°C° 0 mm 3 mps 722 mmHg 52%
    02:00 +30°C° 0 mm 3 mps 721 mmHg 57%
    03:00 +29°C° 0 mm 3 mps 721 mmHg 62%
    04:00 +28°C° 0.1 mm 3 mps 721 mmHg 65%
    05:00 +28°C° 0.1 mm 3 mps 721 mmHg 68%
    06:00 +27°C° 0.1 mm 2 mps 722 mmHg 71%
    07:00 +28°C° 0 mm 3 mps 722 mmHg 68%
    08:00 +29°C° 0 mm 3 mps 723 mmHg 64%
    09:00 +30°C° 0 mm 3 mps 724 mmHg 61%
    10:00 +33°C° 0 mm 3 mps 723 mmHg 54%
    11:00 +35°C° 0 mm 3 mps 723 mmHg 46%
    12:00 +37°C° 0 mm 3 mps 723 mmHg 39%
    13:00 +38°C° 0 mm 3 mps 722 mmHg 35%
    14:00 +38°C° 0 mm 3 mps 721 mmHg 32%
    15:00 +39°C° 0 mm 3 mps 721 mmHg 28%
    16:00 +39°C° 0 mm 2 mps 721 mmHg 29%
    17:00 +38°C° 0 mm 2 mps 721 mmHg 30%
    18:00 +37°C° 0 mm 2 mps 721 mmHg 31%
    19:00 +36°C° 0 mm 2 mps 721 mmHg 33%
    20:00 +35°C° 0 mm 2 mps 722 mmHg 36%
    21:00 +34°C° 0 mm 2 mps 722 mmHg 38%
    22:00 +34°C° 0 mm 2 mps 722 mmHg 41%
    23:00 +32°C° 0 mm 2 mps 723 mmHg 44%

    24 February, Saturday

    Time Temperature Precipitation Wind Pressure Humidity
    00:00 +31°C° 0 mm 2 mps 723 mmHg 46%
    01:00 +31°C° 0 mm 3 mps 722 mmHg 51%
    02:00 +30°C° 0 mm 3 mps 722 mmHg 55%
    03:00 +29°C° 0 mm 3 mps 721 mmHg 60%
    04:00 +29°C° 0 mm 3 mps 722 mmHg 63%
    05:00 +28°C° 0 mm 3 mps 722 mmHg 66%
    06:00 +28°C° 0 mm 3 mps 723 mmHg 69%
    07:00 +29°C° 0 mm 3 mps 723 mmHg 64%
    08:00 +30°C° 0 mm 3 mps 724 mmHg 59%
    09:00 +31°C° 0 mm 3 mps 725 mmHg 53%
    10:00 +34°C° 0.2 mm 3 mps 725 mmHg 44%
    11:00 +36°C° 0.2 mm 3 mps 725 mmHg 36%
    12:00 +39°C° 0.2 mm 2 mps 725 mmHg 27%
    13:00 +39°C° 0 mm 2 mps 724 mmHg 27%
    14:00 +39°C° 0 mm 2 mps 723 mmHg 26%
    15:00 +39°C° 0 mm 2 mps 722 mmHg 26%
    16:00 +38°C° 0 mm 2 mps 722 mmHg 29%
    17:00 +37°C° 0 mm 3 mps 722 mmHg 32%
    18:00 +36°C° 0 mm 3 mps 722 mmHg 35%
    19:00 +35°C° 0 mm 3 mps 723 mmHg 40%
    20:00 +34°C° 0 mm 2 mps 723 mmHg 45%
    21:00 +32°C° 0 mm 2 mps 724 mmHg 50%
    22:00 +31°C° 0 mm 2 mps 724 mmHg 52%
    23:00 +31°C° 0 mm 2 mps 724 mmHg 54%

    25 February, Sunday

    Time Temperature Precipitation Wind Pressure Humidity
    00:00 +30°C° 0 mm 2 mps 724 mmHg 57%
    01:00 +30°C° 0 mm 2 mps 724 mmHg 58%
    02:00 +29°C° 0 mm 1 mps 723 mmHg 60%
    03:00 +29°C° 0 mm 1 mps 723 mmHg 61%
    04:00 +28°C° 0.1 mm 1 mps 723 mmHg 63%
    05:00 +28°C° 0.1 mm 1 mps 723 mmHg 65%
    06:00 +27°C° 0.1 mm 1 mps 724 mmHg 67%
    07:00 +28°C° 0 mm 2 mps 724 mmHg 63%
    08:00 +30°C° 0 mm 2 mps 725 mmHg 59%
    09:00 +31°C° 0 mm 3 mps 726 mmHg 55%
    10:00 +34°C° 0 mm 2 mps 725 mmHg 47%
    11:00 +37°C° 0 mm 2 mps 725 mmHg 39%
    12:00 +39°C° 0 mm 1 mps 725 mmHg 30%
    13:00 +39°C° 0 mm 2 mps 724 mmHg 29%
    14:00 +39°C° 0 mm 2 mps 723 mmHg 28%
    15:00 +39°C° 0 mm 2 mps 723 mmHg 27%
    16:00 +38°C° 0 mm 2 mps 723 mmHg 29%
    17:00 +37°C° 0 mm 1 mps 723 mmHg 30%
    18:00 +36°C° 0 mm 1 mps 723 mmHg 32%
    19:00 +35°C° 0.1 mm 1 mps 723 mmHg 35%
    20:00 +34°C° 0.1 mm 1 mps 724 mmHg 39%
    21:00 +32°C° 0.1 mm 1 mps 724 mmHg 43%
    22:00 +32°C° 0.2 mm 1 mps 724 mmHg 45%
    23:00 +31°C° 0.2 mm 1 mps 724 mmHg 48%

    26 February, Monday

    Time Temperature Precipitation Wind Pressure Humidity
    00:00 +31°C° 0.2 mm 1 mps 724 mmHg 51%
    01:00 +30°C° 0.6 mm 1 mps 724 mmHg 54%
    02:00 +30°C° 0.6 mm 2 mps 724 mmHg 58%
    03:00 +29°C° 0.6 mm 2 mps 723 mmHg 62%
    04:00 +28°C° 0.7 mm 2 mps 724 mmHg 65%
    05:00 +28°C° 0.7 mm 2 mps 724 mmHg 68%
    06:00 +28°C° 0.7 mm 2 mps 724 mmHg 71%
    07:00 +28°C° 0.4 mm 2 mps 725 mmHg 70%
    08:00 +28°C° 0.4 mm 2 mps 725 mmHg 70%
    09:00 +28°C° 0.4 mm 3 mps 726 mmHg 70%
    10:00 +30°C° 0 mm 3 mps 725 mmHg 61%
    11:00 +33°C° 0 mm 3 mps 725 mmHg 53%
    12:00 +35°C° 0 mm 3 mps 725 mmHg 45%
    13:00 +37°C° 0 mm 2 mps 725 mmHg 39%
    14:00 +39°C° 0 mm 1 mps 724 mmHg 34%
    15:00 +38°C° 0 mm 0 mps 723 mmHg 28%
    16:00 +39°C° 0.1 mm 1 mps 723 mmHg 31%
    17:00 +37°C° 0.1 mm 1 mps 723 mmHg 33%
    18:00 +36°C° 0.1 mm 1 mps 723 mmHg 35%
    19:00 +35°C° 0.5 mm 2 mps 724 mmHg 41%
    20:00 +34°C° 0.5 mm 3 mps 725 mmHg 47%
    21:00 +31°C° 0.5 mm 3 mps 725 mmHg 52%
    22:00 +30°C° 1.8 mm 3 mps 725 mmHg 57%
    23:00 +29°C° 1.8 mm 2 mps 725 mmHg 63%
    Show more